Weather History for Casa Grande, AZ

Change the Weather History Date:

Thursday, January 17, 2013

  Actual Average Record
Temperature  
Mean Temperature 50 °F -  
Max Temperature 69 °F 64 °F 77 °F (2000)
Min Temperature 30 °F 39 °F 24 °F (2006)
Degree Days  
Heating Degree Days 16    
Moisture  
Dew Point 16 °F    
Average Humidity 26    
Maximum Humidity 51    
Minimum Humidity 13    
Precipitation  
Precipitation 0.00 in - - ()
Sea Level Pressure  
Sea Level Pressure 30.19 in    
Wind  
Wind Speed 9 mph (NE)    
Max Wind Speed 26 mph    
Max Gust Speed 30 mph    
Visibility 10 miles    
Events      
Averages and records for this station are not official NWS values.
T = Trace of Precipitation, MM = Missing Value Source: NWS Daily Summary

Daily Weather History Graph

Daily Weather History Graph

Search for Another Location

Airport:

Trip Planner

Search our weather history database for the weather conditions in past years. The results will help you decide how hot, cold, wet, or windy it might be!

Date:

Astronomy

Jan. 17, 2013 Rise Set
Actual Time 7:29 AM MST 5:45 PM MST
Civil Twilight 7:02 AM MST 6:12 PM MST
Nautical Twilight 6:32 AM MST 6:42 PM MST
Astronomical Twilight 6:02 AM MST 7:12 PM MST
Moon 11:01 AM MST (1/17) No Moon Set
Length of Visible Light 11h 09m
Length of Day
10h 16m
Waxing Crescent, 38% of the Moon is Illuminated
Jan 17
Waxing Crescent
Jan 18
First Quarter
Jan 26
Full
Feb 3
Last Quarter
Feb 10
New

Hourly Weather History & Observations

Time (MST) Temp. Windchill Dew Point Humidity Pressure Visibility Wind Dir Wind Speed Gust Speed Precip Events Conditions
12:15 AM 44.6 °F 40.7 °F 15.8 °F 31% 30.22 in 10.0 mi North 6.9 mph - N/A   Clear
12:35 AM 44.6 °F 40.7 °F 15.8 °F 31% 30.22 in 10.0 mi North 6.9 mph - N/A   Clear
1:35 AM 41.0 °F 36.4 °F 15.8 °F 36% 30.22 in 10.0 mi NNW 6.9 mph - N/A   Clear
1:55 AM 42.8 °F 38.6 °F 15.8 °F 34% 30.21 in 10.0 mi NNE 6.9 mph - N/A   Clear
2:15 AM 39.2 °F - 14.0 °F 36% 30.21 in 10.0 mi Calm Calm - N/A   Clear
2:35 AM 41.0 °F 36.4 °F 15.8 °F 36% 30.20 in 10.0 mi North 6.9 mph - N/A   Clear
2:55 AM 39.2 °F 35.0 °F 15.8 °F 39% 30.21 in 10.0 mi North 5.8 mph - N/A   Clear
3:15 AM 41.0 °F 36.4 °F 14.0 °F 33% 30.21 in 10.0 mi North 6.9 mph - N/A   Clear
3:35 AM 41.0 °F 35.8 °F 14.0 °F 33% 30.20 in 10.0 mi North 8.1 mph - N/A   Clear
3:55 AM 39.2 °F 35.0 °F 14.0 °F 36% 30.20 in 10.0 mi North 5.8 mph - N/A   Clear
4:15 AM 37.4 °F - 14.0 °F 38% 30.20 in 10.0 mi Calm Calm - N/A   Clear
4:35 AM 33.8 °F - 14.0 °F 44% 30.19 in 10.0 mi Calm Calm - N/A   Clear
4:55 AM 33.8 °F - 14.0 °F 44% 30.20 in 10.0 mi Calm Calm - N/A   Clear
5:15 AM 33.8 °F - 12.2 °F 41% 30.20 in 10.0 mi Calm Calm - N/A   Clear
5:35 AM 33.8 °F - 14.0 °F 44% 30.20 in 10.0 mi Calm Calm - N/A   Clear
5:55 AM 30.2 °F - 14.0 °F 51% 30.20 in 10.0 mi Calm Calm - N/A   Clear
6:15 AM 30.2 °F - 14.0 °F 51% 30.21 in 10.0 mi Calm Calm - N/A   Clear
6:35 AM 33.8 °F - 14.0 °F 44% 30.21 in 10.0 mi Calm Calm - N/A   Clear
6:55 AM 32.0 °F - 12.2 °F 44% 30.21 in 10.0 mi Calm Calm - N/A   Clear
7:15 AM 32.0 °F - 12.2 °F 44% 30.22 in 10.0 mi Calm Calm - N/A   Clear
7:35 AM 30.2 °F - 12.2 °F 47% 30.22 in 10.0 mi Calm Calm - N/A   Clear
7:55 AM 35.6 °F - 14.0 °F 41% 30.22 in 10.0 mi Calm Calm - N/A   Clear
8:15 AM 35.6 °F - 12.2 °F 38% 30.23 in 10.0 mi Calm Calm - N/A   Clear
8:35 AM 35.6 °F - 15.8 °F 44% 30.24 in 10.0 mi Calm Calm - N/A   Clear
8:55 AM 39.2 °F - 17.6 °F 42% 30.25 in 10.0 mi Calm Calm - N/A   Clear
9:15 AM 51.8 °F - 17.6 °F 26% 30.25 in 10.0 mi ENE 11.5 mph - N/A   Clear
9:35 AM 55.4 °F - 15.8 °F 21% 30.25 in 10.0 mi ENE 16.1 mph 20.7 mph N/A   Clear
9:55 AM 55.4 °F - 15.8 °F 21% 30.25 in 10.0 mi ENE 17.3 mph - N/A   Clear
10:15 AM 57.2 °F - 15.8 °F 20% 30.25 in 10.0 mi ENE 24.2 mph 28.8 mph N/A   Clear
10:35 AM 59.0 °F - 15.8 °F 19% 30.25 in 10.0 mi ENE 26.5 mph 29.9 mph N/A   Clear
10:55 AM 60.8 °F - 15.8 °F 17% 30.25 in 10.0 mi ENE 19.6 mph - N/A   Clear
11:15 AM 60.8 °F - 15.8 °F 17% 30.24 in 10.0 mi ENE 19.6 mph - N/A   Clear
11:35 AM 62.6 °F - 15.8 °F 16% 30.23 in 10.0 mi ENE 21.9 mph 25.3 mph N/A   Clear
11:55 AM 62.6 °F - 15.8 °F 16% 30.22 in 10.0 mi ENE 20.7 mph 25.3 mph N/A   Clear
12:15 PM 64.4 °F - 15.8 °F 15% 30.20 in 10.0 mi ENE 18.4 mph - N/A   Clear
12:35 PM 64.4 °F - 17.6 °F 16% 30.19 in 10.0 mi ENE 19.6 mph - N/A   Clear
12:55 PM 66.2 °F - 17.6 °F 15% 30.18 in 10.0 mi ENE 18.4 mph - N/A   Clear
1:15 PM 66.2 °F - 17.6 °F 15% 30.17 in 10.0 mi NE 18.4 mph - N/A   Clear
1:35 PM 66.2 °F - 17.6 °F 15% 30.16 in 10.0 mi NE 18.4 mph - N/A   Clear
1:55 PM 68.0 °F - 17.6 °F 15% 30.15 in 10.0 mi NE 16.1 mph - N/A   Clear
2:15 PM 68.0 °F - 17.6 °F 15% 30.14 in 10.0 mi ENE 18.4 mph - N/A   Clear
2:35 PM 69.8 °F - 17.6 °F 14% 30.14 in 10.0 mi ENE 17.3 mph - N/A   Clear
2:55 PM 69.8 °F - 17.6 °F 14% 30.13 in 10.0 mi ENE 18.4 mph - N/A   Clear
3:15 PM 69.8 °F - 17.6 °F 14% 30.13 in 10.0 mi ENE 18.4 mph 23.0 mph N/A   Clear
3:35 PM 69.8 °F - 17.6 °F 14% 30.13 in 10.0 mi ENE 17.3 mph - N/A   Clear
3:55 PM 69.8 °F - 17.6 °F 14% 30.13 in 10.0 mi NE 19.6 mph 23.0 mph N/A   Clear
4:15 PM 69.8 °F - 17.6 °F 14% 30.13 in 10.0 mi ENE 16.1 mph - N/A   Clear
4:35 PM 69.8 °F - 17.6 °F 14% 30.14 in 10.0 mi NE 17.3 mph - N/A   Clear
4:55 PM 68.0 °F - 15.8 °F 13% 30.14 in 10.0 mi NE 13.8 mph - N/A   Clear
5:15 PM 66.2 °F - 15.8 °F 14% 30.14 in 10.0 mi NE 13.8 mph - N/A   Clear
5:35 PM 66.2 °F - 15.8 °F 14% 30.14 in 10.0 mi NE 10.4 mph - N/A   Clear
5:55 PM 64.4 °F - 15.8 °F 15% 30.15 in 10.0 mi NE 10.4 mph - N/A   Clear
6:15 PM 64.4 °F - 15.8 °F 15% 30.15 in 10.0 mi NE 10.4 mph - N/A   Clear
6:35 PM 62.6 °F - 15.8 °F 16% 30.15 in 10.0 mi NE 9.2 mph - N/A   Clear
6:55 PM 60.8 °F - 15.8 °F 17% 30.16 in 10.0 mi NE 10.4 mph - N/A   Clear
7:15 PM 60.8 °F - 15.8 °F 17% 30.16 in 10.0 mi ENE 11.5 mph - N/A   Clear
7:55 PM 62.6 °F - 17.6 °F 18% 30.16 in 10.0 mi NE 13.8 mph - N/A   Clear
8:15 PM 62.6 °F - 17.6 °F 18% 30.16 in 10.0 mi NE 15.0 mph - N/A   Clear
8:35 PM 62.6 °F - 17.6 °F 18% 30.17 in 10.0 mi NE 13.8 mph 20.7 mph N/A   Clear
8:55 PM 60.8 °F - 17.6 °F 19% 30.17 in 10.0 mi ENE 11.5 mph - N/A   Clear
9:15 PM 59.0 °F - 17.6 °F 20% 30.17 in 10.0 mi ENE 12.7 mph - N/A   Clear
9:35 PM 59.0 °F - 17.6 °F 20% 30.17 in 10.0 mi ENE 12.7 mph - N/A   Clear
9:55 PM 57.2 °F - 17.6 °F 21% 30.17 in 10.0 mi ENE 12.7 mph - N/A   Clear
10:15 PM 57.2 °F - 17.6 °F 21% 30.17 in 10.0 mi ENE 13.8 mph - N/A   Clear
10:35 PM 57.2 °F - 17.6 °F 21% 30.17 in 10.0 mi ENE 13.8 mph - N/A   Clear
10:55 PM 57.2 °F - 17.6 °F 21% 30.17 in 10.0 mi ENE 16.1 mph - N/A   Clear
11:15 PM 57.2 °F - 17.6 °F 21% 30.17 in 10.0 mi ENE 12.7 mph - N/A   Clear
11:35 PM 57.2 °F - 17.6 °F 21% 30.17 in 10.0 mi ENE 16.1 mph - N/A   Clear
11:55 PM 55.4 °F - 17.6 °F 23% 30.17 in 10.0 mi ENE 15.0 mph - N/A   Clear